Satellite-Ground Cal/Val Region Overpasses Predictions

Prediction of Satellite NPP Overpassing Cal/Val Region: PacNW

Region Location: (Latitude: 10.00, Longitude: 139.50) to (Latitude: 22.70, Longitude: 165.60).

Table of predicted overpasses for the next 14.0 days since TLE Epoch: 10/3/2014
Interval Starting Time Starting Location Ending Time Ending Location
1 10/04/2014 03:45:09 ( 10.05, 145.54) 10/04/2014 03:48:44 ( 22.67, 142.53)
2 10/04/2014 14:38:35 ( 11.96, 165.60) 10/04/2014 14:39:08 ( 10.02, 165.15)
3 10/04/2014 16:17:03 ( 22.64, 142.78) 10/04/2014 16:20:38 ( 10.02, 139.78)
4 10/05/2014 03:26:09 ( 10.03, 150.30) 10/05/2014 03:29:44 ( 22.65, 147.29)
5 10/05/2014 15:58:02 ( 22.66, 147.54) 10/05/2014 16:01:37 ( 10.04, 144.53)
6 10/06/2014 03:07:08 ( 10.01, 155.05) 10/06/2014 03:10:44 ( 22.69, 152.03)
7 10/06/2014 15:39:02 ( 22.68, 152.30) 10/06/2014 15:42:38 ( 10.00, 149.28)
8 10/07/2014 02:48:09 ( 10.05, 159.80) 10/07/2014 02:51:44 ( 22.67, 156.79)
9 10/07/2014 15:20:02 ( 22.64, 157.04) 10/07/2014 15:23:37 ( 10.02, 154.03)
10 10/08/2014 02:29:08 ( 10.04, 164.55) 10/08/2014 02:32:43 ( 22.66, 161.55)
11 10/08/2014 15:01:02 ( 22.66, 161.80) 10/08/2014 15:04:37 ( 10.04, 158.79)
12 10/09/2014 03:51:38 ( 10.02, 143.94) 10/09/2014 03:55:14 ( 22.70, 140.91)
13 10/09/2014 14:43:09 ( 18.74, 165.59) 10/09/2014 14:45:37 ( 10.05, 163.55)
14 10/09/2014 16:23:32 ( 22.67, 141.18) 10/09/2014 16:25:29 ( 15.81, 139.51)
15 10/10/2014 03:32:37 ( 10.00, 148.69) 10/10/2014 03:36:13 ( 22.68, 145.67)
16 10/10/2014 16:04:31 ( 22.69, 145.94) 10/10/2014 16:08:07 ( 10.01, 142.91)
17 10/11/2014 03:13:38 ( 10.05, 153.43) 10/11/2014 03:17:13 ( 22.67, 150.43)
18 10/11/2014 15:45:32 ( 22.64, 150.68) 10/11/2014 15:49:07 ( 10.02, 147.67)
19 10/12/2014 02:54:37 ( 10.04, 158.19) 10/12/2014 02:58:12 ( 22.66, 155.18)
20 10/12/2014 15:26:31 ( 22.65, 155.43) 10/12/2014 15:30:06 ( 10.03, 152.43)
21 10/13/2014 02:35:37 ( 10.03, 162.95) 10/13/2014 02:39:12 ( 22.65, 159.94)
22 10/13/2014 15:07:31 ( 22.67, 160.19) 10/13/2014 15:11:06 ( 10.05, 157.18)
23
